When you browse on this site, cookies collect data to enhance your experience and personalize the content and advertising you see.
Visit our Privacy Policy to learn more. By continuing to use the site, you agree to this use of cookies and data.
  • Em Portugal
  • Lista de países
  • Para 7 dias
  • Temperatura da água
  • Mapa do tempo
  • Widgets de tempo
  • user-avatar
    Iniciar Sessão

    Previsão horária em Mramorskoe

    Hoje, 29 Maio, Sexta-feira

    Tempo Temperatura Precipitação Vento Pressão Humidade
    00:00 +10°C° 0 mm 2 m/s 733 mmHg 87%
    01:00 +10°C° 0 mm 1 m/s 733 mmHg 88%
    02:00 +10°C° 0 mm 1 m/s 733 mmHg 88%
    03:00 +10°C° 0 mm 1 m/s 733 mmHg 87%
    04:00 +9°C° 0 mm 2 m/s 733 mmHg 84%
    05:00 +12°C° 0 mm 2 m/s 733 mmHg 76%
    06:00 +14°C° 0 mm 2 m/s 733 mmHg 69%
    07:00 +16°C° 0 mm 3 m/s 733 mmHg 62%
    08:00 +17°C° 0 mm 3 m/s 733 mmHg 56%
    09:00 +18°C° 0 mm 3 m/s 733 mmHg 50%
    10:00 +20°C° 0 mm 3 m/s 733 mmHg 44%
    11:00 +20°C° 0 mm 3 m/s 733 mmHg 42%
    12:00 +21°C° 0 mm 3 m/s 733 mmHg 40%
    13:00 +22°C° 0 mm 3 m/s 733 mmHg 39%
    14:00 +21°C° 0 mm 3 m/s 733 mmHg 41%
    15:00 +21°C° 0 mm 4 m/s 733 mmHg 43%
    16:00 +20°C° 0 mm 4 m/s 732 mmHg 45%
    17:00 +19°C° 0 mm 3 m/s 732 mmHg 50%
    18:00 +19°C° 0 mm 2 m/s 732 mmHg 55%
    19:00 +19°C° 0 mm 1 m/s 732 mmHg 60%
    20:00 +16°C° 0 mm 1 m/s 732 mmHg 65%
    21:00 +14°C° 0 mm 1 m/s 732 mmHg 69%
    22:00 +13°C° 0 mm 1 m/s 732 mmHg 74%
    23:00 +12°C° 0 mm 1 m/s 732 mmHg 76%

    Amanhã, 30 Maio, Sábado

    Tempo Temperatura Precipitação Vento Pressão Humidade
    00:00 +12°C° 0 mm 1 m/s 732 mmHg 78%
    01:00 +11°C° 0 mm 1 m/s 732 mmHg 81%
    02:00 +11°C° 0 mm 1 m/s 732 mmHg 80%
    03:00 +11°C° 0 mm 1 m/s 732 mmHg 80%
    04:00 +10°C° 0 mm 2 m/s 732 mmHg 80%
    05:00 +13°C° 0 mm 2 m/s 732 mmHg 73%
    06:00 +15°C° 0 mm 2 m/s 732 mmHg 66%
    07:00 +17°C° 0 mm 2 m/s 732 mmHg 59%
    08:00 +19°C° 0 mm 2 m/s 732 mmHg 54%
    09:00 +20°C° 0 mm 2 m/s 732 mmHg 48%
    10:00 +23°C° 0 mm 2 m/s 732 mmHg 43%
    11:00 +24°C° 0 mm 2 m/s 732 mmHg 42%
    12:00 +24°C° 0 mm 3 m/s 731 mmHg 40%
    13:00 +25°C° 0 mm 3 m/s 731 mmHg 39%
    14:00 +25°C° 0 mm 3 m/s 731 mmHg 40%
    15:00 +25°C° 0 mm 3 m/s 731 mmHg 40%
    16:00 +25°C° 0 mm 3 m/s 730 mmHg 41%
    17:00 +24°C° 0 mm 2 m/s 730 mmHg 49%
    18:00 +21°C° 0 mm 2 m/s 730 mmHg 56%
    19:00 +20°C° 0 mm 2 m/s 729 mmHg 64%
    20:00 +19°C° 0 mm 1 m/s 729 mmHg 73%
    21:00 +15°C° 0 mm 1 m/s 729 mmHg 83%
    22:00 +13°C° 0 mm 1 m/s 729 mmHg 92%
    23:00 +12°C° 0 mm 1 m/s 729 mmHg 94%

    Depois de amanhã, 31 Maio, Domingo

    Tempo Temperatura Precipitação Vento Pressão Humidade
    00:00 +12°C° 0 mm 1 m/s 728 mmHg 95%
    01:00 +11°C° 0 mm 1 m/s 728 mmHg 96%
    02:00 +11°C° 0 mm 1 m/s 727 mmHg 97%
    03:00 +11°C° 0 mm 1 m/s 727 mmHg 98%
    04:00 +11°C° 0 mm 1 m/s 727 mmHg 98%
    05:00 +12°C° 0 mm 2 m/s 726 mmHg 94%
    06:00 +13°C° 0 mm 2 m/s 726 mmHg 89%
    07:00 +14°C° 0 mm 2 m/s 726 mmHg 84%
    08:00 +14°C° 0 mm 3 m/s 725 mmHg 80%
    09:00 +16°C° 0 mm 3 m/s 725 mmHg 76%
    10:00 +17°C° 0 mm 3 m/s 725 mmHg 72%
    11:00 +17°C° 0 mm 4 m/s 725 mmHg 75%
    12:00 +15°C° 0 mm 4 m/s 724 mmHg 77%
    13:00 +15°C° 0 mm 4 m/s 724 mmHg 80%
    14:00 +14°C° 0.1 mm 4 m/s 723 mmHg 83%
    15:00 +13°C° 0.1 mm 5 m/s 723 mmHg 85%
    16:00 +10°C° 0.1 mm 5 m/s 723 mmHg 88%
    17:00 +9°C° 0.5 mm 5 m/s 722 mmHg 90%
    18:00 +9°C° 0.5 mm 5 m/s 722 mmHg 92%
    19:00 +8°C° 0.5 mm 5 m/s 721 mmHg 95%
    20:00 +8°C° 0.6 mm 5 m/s 721 mmHg 95%
    21:00 +7°C° 0.6 mm 5 m/s 721 mmHg 96%
    22:00 +7°C° 0.6 mm 4 m/s 721 mmHg 96%
    23:00 +7°C° 0.6 mm 4 m/s 721 mmHg 96%

    1 Junho, Segunda-feira

    Tempo Temperatura Precipitação Vento Pressão Humidade
    00:00 +7°C° 0.6 mm 4 m/s 721 mmHg 97%
    01:00 +7°C° 0.6 mm 4 m/s 721 mmHg 97%
    02:00 +7°C° 0.3 mm 4 m/s 721 mmHg 97%
    03:00 +8°C° 0.3 mm 3 m/s 721 mmHg 97%
    04:00 +8°C° 0.3 mm 3 m/s 721 mmHg 97%
    05:00 +8°C° 0.4 mm 3 m/s 721 mmHg 97%
    06:00 +8°C° 0.4 mm 2 m/s 722 mmHg 97%
    07:00 +8°C° 0.4 mm 2 m/s 722 mmHg 97%
    08:00 +8°C° 0.1 mm 2 m/s 722 mmHg 96%
    09:00 +8°C° 0.1 mm 2 m/s 722 mmHg 96%
    10:00 +8°C° 0.1 mm 2 m/s 723 mmHg 96%
    11:00 +9°C° 0.2 mm 2 m/s 723 mmHg 95%
    12:00 +9°C° 0.2 mm 2 m/s 723 mmHg 93%
    13:00 +10°C° 0.2 mm 2 m/s 723 mmHg 92%
    14:00 +10°C° 0 mm 2 m/s 723 mmHg 91%
    15:00 +10°C° 0 mm 2 m/s 724 mmHg 91%
    16:00 +12°C° 0 mm 2 m/s 724 mmHg 90%
    17:00 +10°C° 0.2 mm 2 m/s 724 mmHg 92%
    18:00 +10°C° 0.2 mm 2 m/s 724 mmHg 93%
    19:00 +10°C° 0.2 mm 2 m/s 724 mmHg 94%
    20:00 +10°C° 0.1 mm 2 m/s 724 mmHg 95%
    21:00 +9°C° 0.1 mm 2 m/s 724 mmHg 96%
    22:00 +9°C° 0.1 mm 3 m/s 723 mmHg 97%
    23:00 +9°C° 0 mm 2 m/s 723 mmHg 98%

    2 Junho, Terça-feira

    Tempo Temperatura Precipitação Vento Pressão Humidade
    00:00 +10°C° 0 mm 2 m/s 723 mmHg 98%
    01:00 +10°C° 0 mm 2 m/s 723 mmHg 98%
    02:00 +10°C° 0 mm 2 m/s 723 mmHg 98%
    03:00 +10°C° 0 mm 2 m/s 723 mmHg 98%
    04:00 +11°C° 0 mm 1 m/s 723 mmHg 98%
    05:00 +12°C° 0 mm 2 m/s 723 mmHg 94%
    06:00 +13°C° 0 mm 2 m/s 723 mmHg 90%
    07:00 +12°C° 0 mm 3 m/s 723 mmHg 86%
    08:00 +14°C° 0.1 mm 3 m/s 724 mmHg 76%
    09:00 +15°C° 0.1 mm 4 m/s 724 mmHg 65%
    10:00 +18°C° 0.1 mm 4 m/s 724 mmHg 55%
    11:00 +17°C° 0 mm 5 m/s 724 mmHg 52%
    12:00 +19°C° 0 mm 5 m/s 724 mmHg 49%
    13:00 +19°C° 0 mm 5 m/s 724 mmHg 46%
    14:00 +19°C° 0 mm 5 m/s 724 mmHg 46%
    15:00 +17°C° 0 mm 5 m/s 724 mmHg 47%
    16:00 +17°C° 0 mm 5 m/s 724 mmHg 47%
    17:00 +17°C° 0 mm 4 m/s 724 mmHg 53%
    18:00 +14°C° 0 mm 3 m/s 725 mmHg 60%
    19:00 +14°C° 0 mm 2 m/s 725 mmHg 66%
    20:00 +12°C° 0 mm 2 m/s 725 mmHg 73%
    21:00 +10°C° 0 mm 2 m/s 725 mmHg 81%
    22:00 +8°C° 0 mm 2 m/s 725 mmHg 88%
    23:00 +8°C° 0 mm 2 m/s 726 mmHg 91%

    3 Junho, Quarta-feira

    Tempo Temperatura Precipitação Vento Pressão Humidade
    00:00 +7°C° 0 mm 2 m/s 726 mmHg 94%
    01:00 +8°C° 0 mm 1 m/s 726 mmHg 97%
    02:00 +8°C° 0 mm 1 m/s 726 mmHg 97%
    03:00 +7°C° 0 mm 1 m/s 726 mmHg 98%
    04:00 +7°C° 0 mm 1 m/s 726 mmHg 98%
    05:00 +8°C° 0 mm 1 m/s 726 mmHg 95%
    06:00 +8°C° 0 mm 2 m/s 726 mmHg 92%
    07:00 +9°C° 0 mm 2 m/s 727 mmHg 89%
    08:00 +9°C° 0.1 mm 2 m/s 727 mmHg 89%
    09:00 +9°C° 0.1 mm 2 m/s 727 mmHg 88%
    10:00 +10°C° 0.1 mm 3 m/s 727 mmHg 87%
    11:00 +10°C° 0.1 mm 3 m/s 727 mmHg 84%
    12:00 +11°C° 0.1 mm 3 m/s 727 mmHg 80%
    13:00 +12°C° 0.1 mm 3 m/s 727 mmHg 77%
    14:00 +12°C° 0.3 mm 3 m/s 727 mmHg 78%
    15:00 +12°C° 0.3 mm 3 m/s 727 mmHg 79%
    16:00 +13°C° 0.3 mm 2 m/s 727 mmHg 79%
    17:00 +13°C° 0.2 mm 2 m/s 727 mmHg 83%
    18:00 +12°C° 0.2 mm 2 m/s 727 mmHg 86%
    19:00 +12°C° 0.2 mm 2 m/s 727 mmHg 90%
    20:00 +10°C° 0.1 mm 2 m/s 727 mmHg 92%
    21:00 +9°C° 0.1 mm 2 m/s 727 mmHg 94%
    22:00 +9°C° 0.1 mm 2 m/s 727 mmHg 96%
    23:00 +8°C° 0 mm 2 m/s 727 mmHg 97%
    Mostrar mais